Location: Unspecified
(0.0000°N, 0.0000°E)
Time: 19:59:23
(UTC+00:00)

Vanguard 1 - Pass Details

Date: 20 June 2025
Orbit: 649 x 3822 km, 34.2° (Epoch: 12 July)

Event Time Altitude Azimuth Distance (km) Brightness Sun altitude
Rises 17:55:52 0° 300° (WNW) 7,934 17.5 1.3°
Reaches altitude 10° 18:01:39 10° 298° (WNW) 6,778 16.6 0.0°
Maximum altitude 18:22:34 63° 221° (SW) 2,939 12.6 -4.8°
Drops below altitude 10° 18:34:40 10° 141° (SE) 4,165 12.7 -7.5°
Enters shadow 18:36:08 - 138° (SE) 4,524 12.9 -7.9°
